User: anonymous   Login
Location: Houhaj�rvi
(61.2833°N, 23.0000°E)
Time: 21:41:30
(UTC+00:00)
Language:

Resurs 01 Rocket - Orbit

View from above orbital plane
View from above orbital plane
View from above satellite
View from above satellite

Ground track
Ground track

The orbit data is extracted from the following two-line orbital elements,

1 23343U 94074B   20158.61976112 +.00000004 +00000-0 +78796-5 0  9994
2 23343 097.9999 211.7158 0006935 174.2814 338.3553 14.76825146376813
Epoch (UTC): 06 June 2020 14:52:27
Eccentricity: 0.0006935
inclination: 97.9999°
perigee height: 634 km
apogee height: 644 km
right ascension of ascending node: 211.7158°
argument of perigee: 174.2814°
revolutions per day: 14.76825146
mean anomaly at epoch: 338.3553°
orbit number at epoch: 37681

The dashed part of the orbit path shows where the satellite is in the earth's shadow,  

DLR